Tracking 21992 objects as of 26-Nov-2020
HD Live streaming from Space Station
objects crossing your sky now

BOBCAT-1

Track BOBCAT-1 now!
10-day predictions


NORAD ID: 46922
Int'l Code: 1998-067RS
Perigee: 420.2 km
Apogee: 424.1 km
Inclination: 51.6 °
Period: 92.9 minutes
Semi major axis: 6793 km
RCS: Unknown
Launch date: November 20, 1998
Source: United States (US)
Launch site: TYURATAM MISSILE AND SPACE COMPLEX (TTMTR)
aabbcc
Your satellite tracking list
Your tracking list is empty




NASA's NSSDC Master Catalog

Two Line Element Set (TLE):
1 46922U 98067RS  20330.46405100 +.00014242 +00000-0 +25191-3 0  9995
2 46922 051.6428 270.2932 0002847 057.6544 302.4721 15.50577394003130
Source of the keplerian elements: AFSPC